LogoCoinalyze
    Ad-Free Version ホーム マーケット一覧 資金調達率一覧
    先物データ
    • 集計データ (コイン一覧)
    • 個別チャート
    • 全体チャート
    アラート
    TA
    Bitcoin Ethereum BNB Ripple Tron ZCash Dogecoin Monero UNUS SED LEO Chainlink Cardano Stellar Lumens Bitcoin Cash Litecoin Hedera Cronos Polkadot Ethereum Classic Algorand Quant Cosmos VeChain Dash Bitcoin SV BitTorrent Terra Decred Tezos Iota The Graph THETA Decentraland NEO Chiliz MultiversX Golem Basic Attention Token Horizen Qtum 0x DigiByte Beam FTX Token RIF Token Holo FUNToken Zilliqa Ontology aelf Nano Enjin Coin Ravencoin Siacoin Mask Network Verge Status WINk Waves IoTeX iExec RLC Power Ledger Steem Kyber Network Crystal Lisk Ark Ardor IOST WOO Network WAX Icon Storj Wanchain Loopring Bitcoin Diamond AdEx Bitcoin Gold Augur OmiseGO NEM MonaCoin BitShares Ren Komodo V Systems Nuls Mithril SOLVE Maker EOS Aion Nebulas HedgeTrade Bread Fetch.ai TomoChain Polygon Fantom Waltonchain GXChain Bytom Metaverse ETP MaidSafeCoin QASH
    注文する:
    その他
    • API
    • ローソク足パターン
    • 寄付する
    • お問い合わせ
    • サイトマップ
    • Privacy Policy
    • Disclaimer
    • Theme:
    日本語
    • English
    • Français
    • Русский
    • Deutsch
    • Türkçe
    • Nederlands
    • Português (BR)
    • Español
    • 한국어
    • 简体中文
     
    ログイン / サインアップ
    Markets/ Pepe/ PEPE to USDT/ PEPEUSDT Bitfinex
    Trades
    WL
    チャット
    統計
    ニュース
    ⦷
    AAA
    0.00000346000 1140502.21158879 06:48:36
    0.00000345000 21629493.97799000 06:29:36
    0.00000346000 21629493.97799000 06:13:31
    0.00000346000 21629493.97799000 06:07:25
    0.00000346000 14619905.26264415 05:33:45
    0.00000347000 21629493.97799000 05:32:37
    0.00000347000 21629493.97799000 05:30:57
    0.00000346000 21629493.97799000 05:11:24
    0.00000347000 21629493.97799000 04:35:22
    0.00000346000 21629493.97799000 04:28:00
    0.00000346000 21629493.97799000 04:27:50
    0.00000346000 21629493.97799000 04:27:40
    0.00000346000 21629493.97799000 04:25:59
    0.00000346000 21629493.97799000 04:22:58
    0.00000346000 21629493.97799000 04:13:59
    0.00000348000 21629493.97799000 03:50:12
    0.00000348000 753786.42160447 03:43:32
    0.00000347000 21629493.97799000 00:22:09
    0.00000348000 21629493.97799000 00:05:48
    0.00000348000 21629493.97799000 00:05:46
    0.00000348000 21629493.97799000 00:05:37
    0.00000348000 21629493.97799000 00:05:35
    0.00000348000 21629493.97799000 00:05:33
    0.00000348000 21629493.97799000 00:05:29
    0.00000348000 21629493.97799000 00:05:20
    0.00000348000 21629493.97799000 00:05:17
    0.00000348000 21629493.97799000 00:05:15
    0.00000348000 21629493.97799000 23:48:39
    0.00000346000 21629493.97799000 23:00:45
    0.00000345000 21629493.97799000 22:36:57
    0.00000345000 762525.97431868 22:33:00
    0.00000345000 21629493.97799000 22:30:54
    0.00000346000 21629493.97799000 21:32:55
    0.00000345000 21629493.97799000 21:19:27
    0.00000346000 21629493.97799000 21:10:18
    0.00000348000 21629493.97799000 20:54:07
    0.00000349000 21629493.97799000 19:25:05
    0.00000350000 21629493.97799000 19:24:03
    0.00000349000 4021902.71265989 19:19:51
    0.00000349000 762525.97431871 19:07:45
    0.00000344000 117589199.30515300 18:38:11
    0.00000346000 21629493.97799000 18:35:18
    0.00000346000 21629493.97799000 18:34:36
    0.00000348000 441331.88157495 18:30:50
    0.00000348000 21629493.97799000 18:07:12
    0.00000347000 749472.88190114 17:59:11
    0.00000348000 21629493.97799000 17:57:51
    0.00000350000 12332340.16323001 17:39:47
    0.00000348000 21629493.97799000 16:55:53
    0.00000348000 21629493.97799000 16:55:51
    0.00000348000 21629493.97799000 16:55:18
    0.00000348000 21629493.97799000 16:51:02
    0.00000347000 21629493.97799000 16:36:54
    0.00000348000 21629493.97799000 15:12:21
    0.00000352000 21629493.97799000 14:56:45
    0.00000352000 17808160.14254880 14:53:34
    0.00000353000 21629493.97799000 14:27:07
    0.00000351000 21629493.97799000 13:50:31
    0.00000348000 21629493.97799000 13:41:35
    0.00000349000 21629493.97799000 13:37:40
    0.00000350000 21629493.97799000 13:27:16
    0.00000350000 960164.42667605 13:15:24
    0.00000350000 21629493.97799000 13:11:19
    0.00000348000 21629493.97799000 13:06:48
    0.00000350000 21629493.97799000 12:45:12
    0.00000351000 21629493.97799000 12:27:55
    0.00000351000 7125712.76361482 12:26:25
    0.00000350000 21629493.97799000 12:13:15
    0.00000351000 21629493.97799000 12:09:15
    0.00000350000 21629493.97799000 12:01:33
    0.00000351000 21629493.97799000 11:42:30
    0.00000350000 21629493.97799000 11:35:04
    0.00000349000 21629493.97799000 11:28:13
    0.00000348000 750374.29420358 11:14:05
    0.00000349000 21629493.97799000 11:04:22
    0.00000349000 21629493.97799000 10:43:12
    0.00000349000 21629493.97799000 10:35:48
    0.00000349000 21629493.97799000 10:34:17
    0.00000350000 21629493.97799000 10:31:02
    0.00000349000 21629493.97799000 09:26:29
    0.00000348000 21629493.97799000 09:20:40
    0.00000348000 109322013.46018951 09:19:40
    0.00000348000 102700000.00000000 09:19:40
    0.00000347000 21629493.97799000 08:42:39
    0.00000352000 21629493.97799000 07:39:42
    0.00000355000 21629493.97799000 06:41:14
    0.00000355000 21629493.97799000 06:41:12
    0.00000355000 21629493.97799000 06:41:01
    0.00000355000 21629493.97799000 06:35:10
    0.00000355000 21629493.97799000 06:18:52
    0.00000355000 21629493.97799000 06:12:39
    0.00000356000 155944481.89196080 05:37:15
    0.00000356000 21629493.97799000 05:37:15
    0.00000354000 21629493.97799000 05:06:25
    0.00000356000 21629493.97799000 03:49:09
    0.00000355000 21629493.97799000 03:20:38
    0.00000355000 21629493.97799000 02:29:07
    0.00000355000 21629493.97799000 02:07:33
    0.00000355000 21629493.97799000 02:06:15
    0.00000355000 21629493.97799000 02:02:36
    ログアウト
    AAA
    ヘルプ
    🙂 🤣 😎 🤗 😛 😉 😜 🤑 🤔 😑 😴 😕 🙃 😲 😇 🙁 😢 😬 😟 😠 🕺 🏃 💪 ✌ 👌 👍 👎 👏 👋 🤝 🍺 🍻 🐋 🐟 🦈 🗽 🚄 ✈ 🛑 🚀 🏦 🌚 ⭐ 🌞 ⚡ 🏆 💰 💲 🔨 ❓ ❗ 💯 🔶 🏁
    ☺
    ログイン または サインアップ してチャット
    24時間
    変化
    -1.70%
    出来高
    1,884,275,002
    最高値
    0.00000353000
    最安値
    0.00000344000
    7日間
    変化
    -9.42%
    出来高
    23,604,215,863
    最高値
    0.00000400000
    最安値
    0.00000338000
    30日間
    変化
    +19.72%
    出来高
    231,789,590,967
    最高値
    0.00000450000
    最安値
    0.00000255000
    Pepe price rallies 25% as whale demand and futures interest surge
    Key takeaways Pepe has gained 25% this week, including a combined 22% advance over the previous two days. Seven whale transactions worth more than $1 million each occurred Thursday, the highest...
    coinjournal.net
    Aug 21, 2026 08:41
    PEPE Supply on Exchanges Just Took a Massive Hit – What’s Next?
    A drop in PEPE exchange balances has added to bullish expectations despite muted trader interest.
    cryptopotato.com
    Aug 6, 2026 20:02
    PEPE Exchange Outflows Hit Nearly 2-Year High as Whales Accumulate
    Pepe (PEPE) recorded its largest single-day exchange outflow since November 2024, with 4.54 trillion tokens leaving trading platforms, signaling that holders are moving supply away from immediate...
    beincrypto.com
    Aug 6, 2026 04:57
    Meme Coin Based on White House Shooter Conspiracy Rallies 320%
    $HENRY surged 300% after a 2023 Pepe tweet appeared to name the White House shooter, fueling a viral time-travel meme. The post Meme Coin Based on White House Shooter Conspiracy Rallies 320%...
    beincrypto.com
    Apr 27, 2026 16:11
    PEPE surges 4% as market sentiment improves, eyes Key resistance breakout
    Key takeaways Pepe extends gains on Wednesday, stretching its rally from the 50-day EMA. Derivatives data show heightened retail activity as risk-on sentiment returns to the market. Pepe (PEPE) is...
    coinjournal.net
    Apr 22, 2026 11:44
    Why The PEPE Price Could Stage A 55X Rally To Reach New $0.0001 ATH
    The PEPE price has now started to edge back into bullish conversations after the recent inflows into the crypto market. The last time PEPE’s weekly chart printed the kind of structure now...
    newsbtc.com
    Apr 21, 2026 15:30
    Pepe (PEPE) surges 9%, drawing interest from whales
    Key takeaways PEPE is up 9% in the last 24 hours, making it one of the best performers among the top 50 cryptocurrencies by market cap. The rally comes amid renewed interest from whales and retail...
    coinjournal.net
    Apr 16, 2026 07:40
    Murad Says SPX6900 (SPX) Is Primed for a Rally — Is He Right This Time?
    Crypto influencer Murad Mahmudov claims SPX6900 (SPX) is stabilizing at the same market cap level where Dogecoin (DOGE) and Pepe (PEPE) consolidated before their explosive rallies. The...
    beincrypto.com
    Apr 5, 2026 21:36
    The Shiba Inu Of This Cycle: Analyst Shares Why It Is Better To Buy PEPE Now
    In the bull market cycle of 2021-2022, the Shiba Inu meme coin made waves in a way that changed the face of meme coins forever. This came after Dogecoin’s initial 36,000% rally, and Shiba Inu...
    newsbtc.com
    Apr 4, 2026 07:30
    PEPE Explodes by 18% Amid Altcoin Rally, BTC Tapped $74K: Market Watch
    The frog-themed meme coin is today's biggest gainer, followed by TAO, DOT, and BONK.
    cryptopotato.com
    Mar 16, 2026 10:56
    Should PEPE traders brace for volatility as short squeeze potential builds?
    The memecoin market has seen its collective market capitalization drop by 48% over the past year, and 6.9% over the past month, according to CoinMarketCap. According to Glassnode, the memecoin...
    ambcrypto.com
    Mar 7, 2026 18:00
    チャットでコマンドを入力するだけです。 nick1を実際のニックネームに置き換えてください
    • /ignore nick1 チャットユーザーを無視する
    • /unignore nick1 チャットユーザーを無視しない
    • /ignorelist 無視したチャットユーザーを表示する